Find Starlink 3154

NORAD ID: 49417 Int'l Des: 2021-104 Owner: SPXS Country: US Constellation: starlink operational
LEOCIRCULAR

Live Position

Loading 3D Globe...

About Starlink 3154

Description loading...

Upcoming Passes

Passes for default location (London). Set your location on the main map for personalized predictions.

Altitude History

Loading altitude history...

Two-Line Element Set

1 49417U 21104K 26125.76758448 .00000060 00000-0 21841-4 0 9994
2 49417 53.2189 322.5400 0001289 91.0109 269.1031 15.08838764247387
Epoch: May 5, 2026 • Age: 13 hours

Current Status

Altitude 540.9 km
Velocity 7.59 km/s
Sub-Earth Point -1.17°S, 11.87°W
Launch Date Nov 13, 2021
Age 4.4 years
Type internet

Technical Details

Classification Payload
Mass 290.00 kg
Dry Mass 270.00 kg
Total Mass 290.00 kg
Length 0.20 m
Diameter 2.80 m
Span 9.00 m
Shape Box + pan
Manufacturer SPXS
Bus Type Starlink
Phase Status In Orbit
Owner/State SPXS/US

Most Searched